UAE5AM NZAA-OMDB

Flight info

Callsign UAE5AM
Flight time N/A
Altitude 36000
Route PEBLU N759 ML H345 AD A585 SAPDA L896 MMV Q8 AGELA N571 VUSET A454 PASOV B540 MIVEK P574 IMPED
Aircraft A388/J-SADE2E3FGHIJ3J4J5M1RWXY/LB1D1

Departure

Time N/A
Airport Auckland International Airport (NZAA)

Arrival

Time 2026-05-06 02:33
Airport Dubai International Airport (OMDB)
Time Latitude Longitude Altitude Speed Heading
2026-05-06 02:08 24.38432 57.69246 39831 ft 421 kts 287°
2026-05-06 02:08 24.39375 57.66205 39830 ft 421 kts 287°
2026-05-06 02:09 24.41259 57.60125 39827 ft 420 kts 287°
2026-05-06 02:09 24.43434 57.53091 39824 ft 420 kts 287°
2026-05-06 02:10 24.45003 57.48008 39821 ft 419 kts 287°
2026-05-06 02:10 24.46875 57.41936 39818 ft 419 kts 287°
2026-05-06 02:11 24.48723 57.35932 39322 ft 419 kts 287°
2026-05-06 02:11 24.49672 57.32843 38535 ft 426 kts 287°
2026-05-06 02:11 24.50626 57.29724 37479 ft 437 kts 287°
2026-05-06 02:12 24.51599 57.26555 36487 ft 444 kts 287°
2026-05-06 02:12 24.52594 57.23339 35555 ft 449 kts 287°
2026-05-06 02:12 24.53603 57.20061 34481 ft 459 kts 287°
2026-05-06 02:12 24.54626 57.16717 33475 ft 463 kts 286°
2026-05-06 02:13 24.55653 57.13366 32763 ft 463 kts 287°
2026-05-06 02:13 24.56673 57.10032 32393 ft 457 kts 287°
2026-05-06 02:13 24.57668 57.06760 31760 ft 451 kts 287°
2026-05-06 02:13 24.58674 57.03459 30942 ft 451 kts 287°
2026-05-06 02:14 24.59659 57.00224 30465 ft 443 kts 288°
2026-05-06 02:14 24.60626 56.97033 29906 ft 438 kts 288°
2026-05-06 02:14 24.61589 56.93859 28988 ft 438 kts 288°
2026-05-06 02:14 24.62552 56.90694 28239 ft 431 kts 288°
2026-05-06 02:15 24.63493 56.87597 27770 ft 423 kts 288°
2026-05-06 02:15 24.64518 56.84642 27448 ft 418 kts 293°
2026-05-06 02:15 24.65850 56.81778 26826 ft 415 kts 297°
2026-05-06 02:15 24.67097 56.78874 25840 ft 422 kts 292°
2026-05-06 02:16 24.68214 56.75877 24605 ft 430 kts 292°
2026-05-06 02:16 24.69448 56.72898 23661 ft 433 kts 296°
2026-05-06 02:16 24.70715 56.69920 22900 ft 429 kts 295°
2026-05-06 02:16 24.71952 56.66941 22519 ft 414 kts 294°
2026-05-06 02:17 24.72989 56.64083 22228 ft 394 kts 290°
2026-05-06 02:17 24.73864 56.61333 21915 ft 376 kts 290°
2026-05-06 02:17 24.74713 56.58628 20844 ft 380 kts 290°
2026-05-06 02:17 24.75617 56.55817 19306 ft 397 kts 290°
2026-05-06 02:18 24.76568 56.52901 17892 ft 409 kts 290°
2026-05-06 02:18 24.77528 56.49978 17008 ft 400 kts 290°
2026-05-06 02:18 24.78458 56.47173 16337 ft 388 kts 290°
2026-05-06 02:18 24.79372 56.44381 15496 ft 383 kts 290°
2026-05-06 02:19 24.80265 56.41668 14694 ft 378 kts 290°
2026-05-06 02:19 24.81170 56.38940 13916 ft 374 kts 290°
2026-05-06 02:19 24.82052 56.36265 13064 ft 372 kts 290°
2026-05-06 02:19 24.82926 56.33609 12355 ft 364 kts 290°
2026-05-06 02:20 24.84638 56.28437 10744 ft 353 kts 290°
2026-05-06 02:20 24.85469 56.25927 9879 ft 350 kts 289°
2026-05-06 02:20 24.86304 56.23380 8959 ft 348 kts 289°
2026-05-06 02:21 24.87099 56.20931 8126 ft 344 kts 289°
2026-05-06 02:21 24.87929 56.18396 7254 ft 345 kts 289°
2026-05-06 02:21 24.88729 56.15969 6548 ft 343 kts 289°
2026-05-06 02:21 24.89552 56.13474 5912 ft 342 kts 289°
2026-05-06 02:22 24.90350 56.11042 5224 ft 338 kts 288°
2026-05-06 02:22 24.91149 56.08611 4637 ft 334 kts 288°
2026-05-06 02:22 24.91934 56.06247 4185 ft 333 kts 288°
2026-05-06 02:22 24.92733 56.03807 4030 ft 334 kts 288°
2026-05-06 02:23 24.93517 56.01399 3993 ft 334 kts 288°
2026-05-06 02:23 24.94291 55.99027 4000 ft 332 kts 288°
2026-05-06 02:23 24.95087 55.96588 3993 ft 335 kts 288°
2026-05-06 02:23 24.95869 55.94189 3974 ft 337 kts 288°
2026-05-06 02:24 24.96669 55.91769 3997 ft 341 kts 288°
2026-05-06 02:24 24.97458 55.89312 3996 ft 337 kts 288°
2026-05-06 02:24 24.98242 55.86878 3992 ft 338 kts 288°
2026-05-06 02:24 24.99047 55.84429 3989 ft 341 kts 288°
2026-05-06 02:25 24.99914 55.82044 3994 ft 338 kts 295°
2026-05-06 02:25 25.01112 55.79816 3991 ft 340 kts 301°
2026-05-06 02:25 25.02357 55.77631 3986 ft 341 kts 301°
2026-05-06 02:25 25.03588 55.75422 3985 ft 337 kts 301°
2026-05-06 02:26 25.04813 55.73219 3975 ft 337 kts 301°
2026-05-06 02:26 25.06043 55.71017 4015 ft 331 kts 301°
2026-05-06 02:26 25.07241 55.68876 3920 ft 326 kts 300°
2026-05-06 02:26 25.08402 55.66802 3785 ft 309 kts 302°
2026-05-06 02:27 25.09468 55.64908 3626 ft 293 kts 301°
2026-05-06 02:27 25.10505 55.63045 3440 ft 277 kts 301°
2026-05-06 02:27 25.11470 55.61270 3324 ft 260 kts 301°
2026-05-06 02:27 25.12385 55.59629 3191 ft 246 kts 302°
2026-05-06 02:28 25.13255 55.58082 3038 ft 229 kts 301°
2026-05-06 02:28 25.14055 55.56654 3004 ft 212 kts 302°
2026-05-06 02:28 25.14804 55.55378 2989 ft 185 kts 301°
2026-05-06 02:28 25.15458 55.54193 2917 ft 181 kts 301°
2026-05-06 02:29 25.16102 55.53024 2684 ft 180 kts 301°
2026-05-06 02:29 25.16769 55.51829 2436 ft 177 kts 302°
2026-05-06 02:29 25.17408 55.50683 2228 ft 177 kts 302°
2026-05-06 02:29 25.17973 55.49644 2028 ft 160 kts 302°
2026-05-06 02:30 25.18514 55.48669 1837 ft 152 kts 302°
2026-05-06 02:30 25.19063 55.47665 1641 ft 151 kts 303°
2026-05-06 02:30 25.19624 55.46687 1446 ft 151 kts 302°
2026-05-06 02:30 25.20150 55.45703 1267 ft 148 kts 301°
2026-05-06 02:31 25.20699 55.44747 1081 ft 148 kts 302°
2026-05-06 02:31 25.21226 55.43770 899 ft 144 kts 301°
2026-05-06 02:31 25.21750 55.42824 734 ft 144 kts 302°
2026-05-06 02:31 25.22235 55.41961 578 ft 146 kts 300°
2026-05-06 02:32 25.22750 55.41017 389 ft 143 kts 302°
2026-05-06 02:32 25.23244 55.40127 221 ft 145 kts 300°
2026-05-06 02:32 25.23724 55.39251 64 ft 142 kts 302°
2026-05-06 02:32 25.24080 55.38608 57 ft 106 kts 301°
2026-05-06 02:33 25.24306 55.38198 48 ft 63 kts 301°
2026-05-06 02:33 25.24393 55.38040 48 ft 34 kts 301°
2026-05-06 02:33 25.24584 55.37679 44 ft 28 kts 290°
2026-05-06 02:34 25.24606 55.37483 40 ft 25 kts 263°
2026-05-06 02:34 25.24602 55.37445 40 ft 1 kts 251°
2026-05-06 02:34 25.24600 55.37439 40 ft 1 kts 226°
2026-05-06 02:34 25.24582 55.37427 40 ft 6 kts 206°
2026-05-06 02:35 25.24529 55.37397 40 ft 11 kts 208°
2026-05-06 02:35 25.24457 55.37342 40 ft 15 kts 216°
2026-05-06 02:35 25.24401 55.37301 40 ft 1 kts 204°
2026-05-06 02:35 25.24389 55.37295 40 ft 1 kts 204°